Tracking 19854 objects as of 22-Sep-2019
HD Live streaming from Space Station
objects crossing your sky now

COSMOS 1761

Track COSMOS 1761 now!
COSMOS 1761 is classified as:


NORAD ID: 16849
Int'l Code: 1986-050A
Perigee: 6,525.7 km
Apogee: 33,818.9 km
Inclination: 69.8 °
Period: 717.3 minutes
Semi major axis: 26543 km
RCS: 12.1379 m2 (large)
Launch date: July 5, 1986
Source: Commonwealth of Independent States (former USSR) (CIS)
Launch site: PLESETSK MISSILE AND SPACE COMPLEX (PKMTR)
aabbcc
Your satellite tracking list
Your tracking list is empty




NASA's NSSDC Master Catalog

Two Line Element Set (TLE):
1 16849U 86050A   19263.48689937  .00000794  00000-0  00000+0 0  9991
2 16849  69.7516 169.4532 5141254  70.0981  86.3875  2.00756904243336
Source of the keplerian elements: AFSPC